Date String (YYYY-MM-DD hh:mm:ss) UTC,Instrument flags,Ambient pressure (hPa),Sample flow (lpm),Bypass flow (lpm),Sample temperature (°C),Ambient temperature (°C),ASC tube jacket temperature (°C),LED temperature (°C),Box temperature (°C),Sample RH (%),Span deviation,Mass concentration (μg/m³),Mass concentration (μg/m³),Mass concentration (μg/m³)
DateTimeUTC,F1_M11,P_M11,Q1_M11,Q2_M11,T1_M11,T2_M11,T3_M11,T4_M11,T5_M11,U1_M11,ZSPAN_M11,X0_M11,X2_M11,X1_M11
2021-08-22 07:00:00,,0824.2,5.01,0.00,29.4,28.6,00.0,38.6,31.1,28.4,0002.0,0014.14,0008.98,0008.24
2021-08-22 07:01:00,,0824.2,5.00,0.00,29.4,28.6,00.0,38.6,31.1,28.6,0002.0,0014.70,0008.96,0008.24
2021-08-22 07:02:00,,0824.2,4.99,0.00,29.3,28.6,00.0,38.6,31.1,28.5,0001.8,0014.74,0008.95,0008.25
2021-08-22 07:03:00,,0824.2,4.99,0.00,29.3,28.6,00.0,38.6,31.1,28.2,0001.7,0014.38,0008.90,0008.26
2021-08-22 07:04:00,,0824.1,5.00,0.00,29.3,28.6,00.0,38.6,31.1,28.0,0001.7,0014.11,0008.89,0008.26
2021-08-22 07:05:00,,0824.1,5.02,0.00,29.3,28.6,00.0,38.5,31.1,27.8,0002.0,0014.10,0008.87,0008.26
2021-08-22 07:06:00,,0824.1,5.00,0.00,29.3,28.5,00.0,38.5,31.1,27.7,0002.0,0014.05,0008.84,0008.25
2021-08-22 07:07:00,,0824.0,4.99,0.00,29.3,28.5,00.0,38.5,31.0,28.1,0002.1,0014.02,0008.81,0008.23
2021-08-22 07:08:00,,0824.1,5.01,0.00,29.3,28.5,00.0,38.5,31.0,28.0,0002.4,0014.33,0008.79,0008.20
2021-08-22 07:09:00,,0824.1,5.01,0.00,29.3,28.5,00.0,38.5,31.0,28.1,0002.1,0014.14,0008.79,0008.19
2021-08-22 07:10:00,,0824.1,4.99,0.00,29.3,28.5,00.0,38.5,31.0,27.6,0002.2,0013.88,0008.79,0008.19
2021-08-22 07:11:00,,0824.1,5.01,0.00,29.3,28.5,00.0,38.5,31.0,28.6,0002.3,0013.64,0008.80,0008.18
2021-08-22 07:12:00,,0824.1,5.01,0.00,29.2,28.5,00.0,38.5,31.0,29.0,0002.5,0013.06,0008.81,0008.18
2021-08-22 07:13:00,,0824.1,5.00,0.00,29.3,28.6,00.0,38.5,31.0,28.4,0002.4,0012.94,0008.77,0008.16
2021-08-22 07:14:00,,0824.0,5.01,0.00,29.3,28.6,00.0,38.5,31.1,28.4,0002.2,0012.80,0008.75,0008.13
2021-08-22 07:15:00,,0824.1,5.00,0.00,29.3,28.6,00.0,38.5,31.1,28.6,0002.2,0012.89,0008.76,0008.13
2021-08-22 07:16:00,,0824.0,5.00,0.00,29.3,28.6,00.0,38.5,31.1,28.4,0002.2,0012.88,0008.78,0008.13
2021-08-22 07:17:00,,0824.0,5.00,0.00,29.3,28.6,00.0,38.5,31.1,28.5,0002.2,0013.00,0008.78,0008.14
2021-08-22 07:18:00,,0824.0,4.99,0.00,29.3,28.7,00.0,38.5,31.1,28.5,0001.9,0013.07,0008.76,0008.13
2021-08-22 07:19:00,,0823.9,4.99,0.00,29.3,28.7,00.0,38.5,31.1,28.6,0001.7,0013.17,0008.78,0008.15
2021-08-22 07:20:00,,0824.0,5.01,0.00,29.3,28.7,00.0,38.5,31.1,28.8,0001.8,0013.36,0008.80,0008.17
2021-08-22 07:21:00,,0823.9,5.00,0.00,29.3,28.7,00.0,38.5,31.1,29.0,0001.5,0013.39,0008.81,0008.17
2021-08-22 07:22:00,,0824.0,5.00,0.00,29.4,28.7,00.0,38.5,31.2,29.5,0001.3,0013.34,0008.79,0008.17
2021-08-22 07:23:00,,0823.9,4.99,0.00,29.3,28.7,00.0,38.5,31.1,29.3,0001.1,0013.26,0008.79,0008.17
2021-08-22 07:24:00,,0823.9,4.99,0.00,29.3,28.6,00.0,38.5,31.1,28.7,0001.2,0013.70,0008.82,0008.20
2021-08-22 07:25:00,,0824.0,4.99,0.00,29.3,28.7,00.0,38.5,31.1,28.7,0001.4,0013.96,0008.84,0008.21
2021-08-22 07:26:00,,0824.0,5.00,0.00,29.3,28.7,00.0,38.5,31.1,28.6,0001.7,0014.02,0008.88,0008.24
2021-08-22 07:27:00,,0823.9,5.00,0.00,29.3,28.7,00.0,38.5,31.1,29.1,0001.6,0014.01,0008.87,0008.24
2021-08-22 07:28:00,,0823.9,5.00,0.00,29.3,28.7,00.0,38.5,31.1,28.6,0001.5,0013.84,0008.87,0008.24
2021-08-22 07:29:00,,0823.8,4.99,0.00,29.3,28.7,00.0,38.5,31.1,28.2,0001.7,0013.86,0008.93,0008.27
2021-08-22 07:30:00,,0823.8,5.02,0.00,29.3,28.7,00.0,38.5,31.1,28.1,0001.8,0013.42,0008.92,0008.28
2021-08-22 07:31:00,,0823.8,5.01,0.00,29.3,28.6,00.0,38.5,31.1,28.6,0001.7,0013.27,0008.91,0008.28
2021-08-22 07:32:00,,0823.8,4.99,0.00,29.3,28.6,00.0,38.5,31.0,28.6,0001.9,0013.25,0008.90,0008.29
2021-08-22 07:33:00,,0823.7,4.99,0.00,29.3,28.5,00.0,38.5,31.0,28.5,0002.0,0013.40,0008.97,0008.32
2021-08-22 07:34:00,,0823.7,5.01,0.00,29.3,28.5,00.0,38.5,31.0,28.4,0002.0,0013.49,0009.00,0008.34
2021-08-22 07:35:00,,0823.7,4.99,0.00,29.2,28.5,00.0,38.5,31.0,28.3,0002.0,0013.58,0009.06,0008.36
2021-08-22 07:36:00,,0823.7,5.02,0.00,29.2,28.5,00.0,38.5,31.0,28.2,0001.9,0013.59,0009.10,0008.38
2021-08-22 07:37:00,,0823.7,4.98,0.00,29.2,28.5,00.0,38.5,31.0,28.8,0001.7,0013.47,0009.05,0008.36
2021-08-22 07:38:00,,0823.7,4.99,0.00,29.2,28.4,00.0,38.4,31.0,28.5,0001.8,0013.92,0009.05,0008.35
2021-08-22 07:39:00,,0823.7,5.00,0.00,29.2,28.4,00.0,38.4,30.9,28.2,0001.8,0014.41,0009.06,0008.35
2021-08-22 07:40:00,,0823.7,5.00,0.00,29.2,28.4,00.0,38.4,30.9,28.3,0001.6,0014.46,0009.01,0008.34
2021-08-22 07:41:00,,0823.7,5.00,0.00,29.1,28.3,00.0,38.4,30.9,28.6,0001.5,0014.48,0009.02,0008.34
2021-08-22 07:42:00,,0823.7,4.99,0.00,29.1,28.3,00.0,38.4,30.9,28.1,0001.6,0014.51,0009.05,0008.37
2021-08-22 07:43:00,,0823.7,5.00,0.00,29.1,28.3,00.0,38.4,30.8,28.1,0001.8,0014.47,0009.03,0008.36
2021-08-22 07:44:00,,0823.7,5.00,0.00,29.1,28.3,00.0,38.4,30.8,28.4,0001.7,0014.36,0008.97,0008.35
2021-08-22 07:45:00,,0823.7,5.00,0.00,29.0,28.2,00.0,38.3,30.8,29.1,0001.6,0014.27,0008.93,0008.35
2021-08-22 07:46:00,,0823.7,5.00,0.00,29.0,28.2,00.0,38.3,30.7,29.1,0001.8,0013.90,0008.90,0008.34
2021-08-22 07:47:00,,0823.7,5.00,0.00,29.0,28.2,00.0,38.3,30.7,28.5,0001.9,0013.68,0008.88,0008.34
2021-08-22 07:48:00,,0823.7,5.01,0.00,29.0,28.2,00.0,38.3,30.7,28.5,0002.0,0013.77,0008.90,0008.35
2021-08-22 07:49:00,,0823.7,5.01,0.00,29.0,28.2,00.0,38.3,30.7,28.2,0001.9,0013.28,0008.89,0008.36
2021-08-22 07:50:00,,0823.7,5.00,0.00,28.9,28.1,00.0,38.3,30.7,28.4,0002.0,0012.79,0008.87,0008.37
2021-08-22 07:51:00,,0823.7,5.00,0.00,28.9,28.1,00.0,38.2,30.6,28.1,0002.0,0012.69,0008.88,0008.38
2021-08-22 07:52:00,,0823.7,5.00,0.00,28.9,28.0,00.0,38.2,30.6,28.0,0002.0,0012.68,0008.87,0008.38
2021-08-22 07:53:00,,0823.7,5.00,0.00,28.9,28.0,00.0,38.2,30.6,28.1,0002.1,0012.57,0008.87,0008.36
2021-08-22 07:54:00,,0823.7,5.01,0.00,28.8,28.1,00.0,38.2,30.6,28.2,0001.9,0012.51,0008.86,0008.36
2021-08-22 07:55:00,,0823.7,5.01,0.00,28.8,28.0,00.0,38.2,30.5,28.4,0002.1,0012.41,0008.82,0008.32
2021-08-22 07:56:00,,0823.7,5.00,0.00,28.8,28.0,00.0,38.1,30.5,28.1,0002.3,0012.44,0008.83,0008.32
2021-08-22 07:57:00,,0823.7,5.00,0.00,28.8,28.0,00.0,38.1,30.5,28.3,0002.3,0012.85,0008.85,0008.33
2021-08-22 07:58:00,,0823.7,5.01,0.00,28.8,28.0,00.0,38.1,30.5,28.6,0002.2,0012.90,0008.87,0008.34
2021-08-22 07:59:00,,0823.7,4.99,0.00,28.8,28.0,00.0,38.1,30.5,28.3,0002.1,0012.92,0008.90,0008.38
